TimeEEST,TemperatureF,Dew PointF,Humidity,Sea Level PressureIn,VisibilityMPH,Wind Direction,Wind SpeedMPH,Gust SpeedMPH,PrecipitationIn,Events,Conditions,WindDirDegrees,DateUTC
12:50 AM,71.6,48.2,43,30.04,-9999.0,WNW,9.2,-,N/A,,Clear,300,2012-10-06 21:50:00
1:50 AM,69.8,46.4,43,30.04,-9999.0,Calm,Calm,-,N/A,,Clear,0,2012-10-06 22:50:00
2:50 AM,66.2,48.2,52,30.04,-9999.0,Calm,Calm,-,N/A,,Clear,0,2012-10-06 23:50:00
3:50 AM,66.2,48.2,52,30.01,-9999.0,Calm,Calm,-,N/A,,Clear,0,2012-10-07 00:50:00
4:50 AM,64.4,46.4,52,30.01,-9999.0,NNW,4.6,-,N/A,,Clear,340,2012-10-07 01:50:00
5:50 AM,68.0,50.0,52,30.01,-9999.0,NW,5.8,-,N/A,,Clear,310,2012-10-07 02:50:00
6:20 AM,68.0,48.2,49,30.01,-9999.0,NW,6.9,-,N/A,,Clear,310,2012-10-07 03:20:00
6:50 AM,64.4,48.2,56,30.01,-9999.0,Calm,Calm,-,N/A,,Clear,0,2012-10-07 03:50:00
7:20 AM,64.4,48.2,56,30.01,-9999.0,Calm,Calm,-,N/A,,Clear,0,2012-10-07 04:20:00
7:50 AM,64.4,48.2,56,30.01,-9999.0,Variable,3.5,-,N/A,,Clear,0,2012-10-07 04:50:00
8:20 AM,66.2,48.2,52,30.01,-9999.0,Calm,Calm,-,N/A,,Clear,0,2012-10-07 05:20:00
8:50 AM,71.6,48.2,43,30.04,-9999.0,Calm,Calm,-,N/A,,Clear,0,2012-10-07 05:50:00
9:20 AM,73.4,48.2,41,30.04,-9999.0,NW,5.8,-,N/A,,Clear,310,2012-10-07 06:20:00
9:50 AM,77.0,46.4,34,30.04,-9999.0,Calm,Calm,-,N/A,,Clear,0,2012-10-07 06:50:00
10:20 AM,77.0,50.0,39,30.04,-9999.0,Calm,Calm,-,N/A,,Clear,0,2012-10-07 07:20:00
10:50 AM,78.8,44.6,30,30.04,-9999.0,South,6.9,-,N/A,,Clear,170,2012-10-07 07:50:00
11:20 AM,80.6,46.4,30,30.04,-9999.0,South,6.9,-,N/A,,Clear,180,2012-10-07 08:20:00
11:50 AM,80.6,46.4,30,29.98,-9999.0,SSW,9.2,-,N/A,,Clear,200,2012-10-07 08:50:00
12:20 PM,82.4,44.6,26,29.98,-9999.0,SSW,9.2,-,N/A,,Clear,200,2012-10-07 09:20:00
12:50 PM,82.4,42.8,25,29.98,-9999.0,SSW,10.4,-,N/A,,Clear,200,2012-10-07 09:50:00
1:20 PM,84.2,41.0,22,29.98,-9999.0,SSW,11.5,-,N/A,,Clear,200,2012-10-07 10:20:00
1:50 PM,84.2,44.6,25,29.95,-9999.0,SSW,9.2,-,N/A,,Clear,210,2012-10-07 10:50:00
2:20 PM,84.2,41.0,22,29.92,-9999.0,SSW,9.2,-,N/A,,Clear,210,2012-10-07 11:20:00
2:50 PM,84.2,39.2,20,29.92,-9999.0,SSW,9.2,-,N/A,,Clear,210,2012-10-07 11:50:00
3:20 PM,84.2,39.2,20,29.92,-9999.0,SSW,6.9,-,N/A,,Clear,200,2012-10-07 12:20:00
3:50 PM,84.2,39.2,20,29.92,-9999.0,SSW,8.1,-,N/A,,Clear,210,2012-10-07 12:50:00
4:20 PM,84.2,41.0,22,29.89,-9999.0,SSW,9.2,-,N/A,,Clear,200,2012-10-07 13:20:00
4:50 PM,84.2,48.2,29,29.89,-9999.0,South,8.1,-,N/A,,Clear,190,2012-10-07 13:50:00
5:20 PM,82.4,50.0,32,29.89,-9999.0,South,11.5,-,N/A,,Clear,170,2012-10-07 14:20:00
5:50 PM,80.6,53.6,39,29.89,-9999.0,South,11.5,-,N/A,,Clear,180,2012-10-07 14:50:00
6:20 PM,78.8,57.2,47,29.89,-9999.0,South,8.1,-,N/A,,Clear,170,2012-10-07 15:20:00
6:50 PM,77.0,55.4,47,29.89,-9999.0,SSE,8.1,-,N/A,,Clear,160,2012-10-07 15:50:00
7:20 PM,75.2,57.2,53,29.89,-9999.0,South,5.8,-,N/A,,Clear,170,2012-10-07 16:20:00
7:50 PM,75.2,57.2,53,29.89,-9999.0,SSE,4.6,-,N/A,,Clear,150,2012-10-07 16:50:00
8:20 PM,75.2,53.6,47,29.89,-9999.0,Variable,3.5,-,N/A,,Clear,0,2012-10-07 17:20:00
8:50 PM,73.4,53.6,50,29.89,-9999.0,Calm,Calm,-,N/A,,Clear,0,2012-10-07 17:50:00
9:20 PM,71.6,53.6,53,29.89,-9999.0,Variable,2.3,-,N/A,,Clear,0,2012-10-07 18:20:00
9:50 PM,71.6,51.8,50,29.89,-9999.0,Variable,2.3,-,N/A,,Clear,0,2012-10-07 18:50:00
10:20 PM,69.8,53.6,56,29.89,-9999.0,Variable,2.3,-,N/A,,Clear,0,2012-10-07 19:20:00
10:50 PM,69.8,51.8,53,29.89,-9999.0,Calm,Calm,-,N/A,,Clear,0,2012-10-07 19:50:00
11:20 PM,69.8,53.6,56,29.89,-9999.0,Variable,3.5,-,N/A,,Clear,0,2012-10-07 20:20:00
11:50 PM,69.8,55.4,60,29.89,-9999.0,Calm,Calm,-,N/A,,Clear,0,2012-10-07 20:50:00